This demonstration page uses our WeatherBlox Daily Observations layout. Learn more.

Hourly Observations for September 1, 2017

Temp ( °F °C ) Dew Point ( °F °C ) Humidity (%) Winds ( mph kmh ) Pressure ( in mb ) Visibility ( mi km ) Precip ( " mm )
12:15 am 00:15 Clear 66 19 59 14.8 77 77 ESE 6 9 30.03 1017 10 16.0934 0 0
12:35 am 00:35 Clear 65 18.4 59 15.2 82 82 SE 6 9 30.03 1017 10 16.0934 0 0
12:55 am 00:55 Clear 65 18.1 59 15 82 82 SSE 3 6 30.03 1017 10 16.0934 0 0
1:15 am 01:15 Clear 65 18.2 58 14.5 79 79 SE 7 11 30.03 1017 10 16.0934 0 0
1:35 am 01:35 Clear 64 17.6 58 14.7 83 83 SSE 6 9 30.03 1017 10 16.0934 0 0
1:55 am 01:55 Clear 64 17.6 59 14.9 84 84 SSE 6 9 30.03 1017 10 16.0934 0 0
2:15 am 02:15 Clear 64 17.8 59 14.8 83 83 SSE 7 11 30.03 1017 10 16.0934 0 0
2:35 am 02:35 Clear 64 18 58 14.6 81 81 S 5 7 30.03 1017 10 16.0934 0 0
2:55 am 02:55 Clear 65 18.1 58 14.6 80 80 SE 3 6 30.03 1017 10 16.0934 0 0
3:15 am 03:15 Clear 63 17.2 59 15.1 88 88 SSE 3 6 30.03 1017 10 16.0934 0 0
3:35 am 03:35 Clear 63 17.3 59 15.2 88 88 SSE 3 6 30.03 1017 10 16.0934 0 0
3:55 am 03:55 Clear 64 17.6 59 15 85 85 S 5 7 30.03 1017 10 16.0934 0 0
4:15 am 04:15 Clear 64 17.6 59 15 85 85 S 6 9 30.03 1017 10 16.0934 0 0
4:35 am 04:35 Clear 64 17.5 59 15 85 85 S 6 9 30.03 1017 10 16.0934 0 0
4:55 am 04:55 Clear 64 17.6 59 15 85 85 S 9 15 30 1016 10 16.0934 0 0
5:15 am 05:15 Clear 64 17.7 59 14.8 83 83 S 12 19 30 1016 10 16.0934 0 0
5:35 am 05:35 Mostly Cloudy 64 17.6 58 14.7 83 83 S 10 17 30 1016 10 16.0934 0 0
5:55 am 05:55 Mostly Cloudy 64 17.7 58 14.7 83 83 S 10 17 30 1016 10 16.0934 0 0
6:15 am 06:15 Mostly Cloudy 64 17.8 58 14.5 81 81 S 10 17 30 1016 10 16.0934 0 0
6:35 am 06:35 Cloudy with Light Rain 64 17.8 58 14.5 81 81 S 13 20 30 1016 10 16.0934 0 0
6:55 am 06:55 Cloudy with Light Drizzle 64 17.5 59 14.9 85 85 S 12 19 30 1016 10 16.0934 0 0
7:15 am 07:15 Mostly Cloudy 63 17.4 59 15 86 86 S 9 15 30 1016 10 16.0934 0 0
7:35 am 07:35 Partly Cloudy 64 17.6 58 14.7 83 83 S 8 13 30 1016 10 16.0934 0 0
7:55 am 07:55 Partly Cloudy 63 17.2 59 15 87 87 S 7 11 30 1016 10 16.0934 0 0
8:15 am 08:15 Sunny 63 17.2 59 15.2 88 88 S 7 11 30 1016 10 16.0934 0 0
8:35 am 08:35 Partly Cloudy 64 17.6 59 15.1 85 85 S 8 13 30 1016 10 16.0934 0 0
8:55 am 08:55 Cloudy 64 18 59 15 83 83 S 9 15 30 1016 10 16.0934 0 0
9:15 am 09:15 Cloudy 65 18.2 59 15 82 82 S 9 15 30 1016 10 16.0934 0 0
9:35 am 09:35 Cloudy 65 18.3 59 14.8 80 80 S 9 15 30 1016 10 16.0934 0 0
9:55 am 09:55 Cloudy 65 18.5 59 15 80 80 S 7 11 30 1016 10 16.0934 0 0
10:15 am 10:15 Cloudy 65 18.6 59 15.2 81 81 SSW 3 6 30.03 1017 10 16.0934 0 0
10:35 am 10:35 Mostly Cloudy 67 19.4 59 15.1 76 76 SSW 9 15 30.03 1017 10 16.0934 0 0
10:55 am 10:55 Partly Cloudy 68 20.2 60 15.3 74 74 SSW 7 11 30.03 1017 10 16.0934 0 0
11:15 am 11:15 Mostly Cloudy 70 21.1 58 14.7 67 67 S 10 17 30 1016 10 16.0934 0 0
11:35 am 11:35 Cloudy 70 21.1 59 14.8 67 67 SSW 10 17 30 1016 10 16.0934 0 0
11:55 am 11:55 Partly Cloudy 72 22.1 58 14.6 63 63 S 10 17 29.97 1015 10 16.0934 0 0
12:15 pm 12:15 Partly Cloudy 71 21.4 59 15 67 67 S 8 13 29.97 1015 10 16.0934 0 0
12:35 pm 12:35 Partly Cloudy 70 21.3 59 15.2 68 68 S 10 17 29.97 1015 10 16.0934 0 0
12:55 pm 12:55 Sunny 72 22 60 15.4 66 66 S 10 17 29.97 1015 10 16.0934 0 0
1:15 pm 13:15 Mostly Cloudy 72 22 60 15.8 68 68 S 9 15 29.97 1015 10 16.0934 0 0
1:35 pm 13:35 Mostly Cloudy 72 22.1 61 16.2 69 69 S 9 15 29.94 1014 10 16.0934 0 0
1:55 pm 13:55 Cloudy 72 22 60 15.8 68 68 S 9 15 29.94 1014 10 16.0934 0 0
2:15 pm 14:15 Cloudy with Light Rain 72 22.2 62 16.8 72 72 S 6 9 29.94 1014 10 16.0934 0 0
2:35 pm 14:35 Mostly Cloudy 73 22.5 63 17.1 72 72 S 8 13 29.94 1014 10 16.0934 0 0
2:55 pm 14:55 Cloudy 72 22.3 62 16.4 69 69 SSE 7 11 29.94 1014 10 16.0934 0 0
3:15 pm 15:15 Mostly Cloudy with Light Rain 72 22.2 62 16.9 72 72 SSE 8 13 29.94 1014 10 16.0934 0 0
3:35 pm 15:35 Partly Cloudy 72 22.1 63 17 73 73 SSE 6 9 29.94 1014 10 16.0934 0 0
3:55 pm 15:55 Partly Cloudy 71 21.9 63 17 74 74 S 6 9 29.94 1014 10 16.0934 0 0
4:15 pm 16:15 Partly Cloudy 71 21.6 62 16.7 74 74 SE 10 17 29.94 1014 10 16.0934 0 0
4:35 pm 16:35 Partly Cloudy 71 21.6 63 17.2 76 76 SSE 8 13 29.94 1014 10 16.0934 0 0
4:55 pm 16:55 Sunny 72 22 62 16.7 72 72 SSE 10 17 29.94 1014 10 16.0934 0 0
5:15 pm 17:15 Partly Cloudy 71 21.9 62 16.7 72 72 SSE 10 17 29.94 1014 10 16.0934 0 0
5:35 pm 17:35 Partly Cloudy 71 21.7 62 16.7 73 73 SSE 9 15 29.94 1014 10 16.0934 0 0
5:55 pm 17:55 Sunny 71 21.6 62 16.9 75 75 SE 10 17 29.94 1014 10 16.0934 0 0
6:15 pm 18:15 Sunny 72 22.1 63 17.1 73 73 SE 8 13 29.91 1013 10 16.0934 0 0
6:35 pm 18:35 Sunny 72 22 62 16.8 72 72 SSE 9 15 29.94 1014 10 16.0934 0 0
6:55 pm 18:55 Sunny 71 21.6 62 16.6 73 73 SSE 8 13 29.94 1014 10 16.0934 0 0
7:15 pm 19:15 Sunny 71 21.5 62 16.5 73 73 SSE 8 13 29.94 1014 10 16.0934 0 0
7:35 pm 19:35 Sunny 70 21 62 16.5 76 76 S 3 6 29.94 1014 10 16.0934 0 0
7:55 pm 19:55 Sunny 68 20 62 16.7 81 81 SSE 5 7 29.94 1014 10 16.0934 0 0
8:15 pm 20:15 Clear 67 19.2 62 16.8 86 86 SSE 3 6 29.97 1015 10 16.0934 0 0
8:35 pm 20:35 Clear 65 18.1 62 16.4 90 90 SSE 5 7 29.97 1015 10 16.0934 0 0
8:55 pm 20:55 Clear 64 17.8 61 16.3 91 91 SE 5 7 29.97 1015 10 16.0934 0 0
9:15 pm 21:15 Clear 63 17.3 61 15.9 92 92 SSE 5 7 30 1016 10 16.0934 0 0
9:35 pm 21:35 Clear 64 17.5 61 16.1 92 92 SSE 3 6 30 1016 10 16.0934 0 0
9:55 pm 21:55 Clear 62 16.6 60 15.5 93 93 SE 5 7 30 1016 10 16.0934 0 0
10:15 pm 22:15 Clear 62 16.6 60 15.6 94 94 SSE 5 7 30 1016 7 11.26538 0 0
10:35 pm 22:35 Clear 63 17 61 16 94 94 SSE 5 7 30 1016 10 16.0934 0 0
10:55 pm 22:55 Clear 62 16.5 60 15.5 94 94 SSE 6 9 30.03 1017 7 11.26538 0 0
11:15 pm 23:15 Clear 62 16.5 60 15.5 94 94 SSE 6 9 30.03 1017 7 11.26538 0 0
11:35 pm 23:35 Clear 62 16.5 60 15.7 95 95 SSE 6 9 29.97 1015 7 11.26538 0 0
11:55 pm 23:55 Clear 62 16.6 60 15.7 94 94 SSE 5 7 29.97 1015 7 11.26538 0 0

Powered by AerisWeather